DB0MW-13 Weather Reports


Display with metric or nautical units.
time (UTC)temp
F
wind
direction
speed
MPH
gust
MPH
rain 1hr
in
rain 24hr
in
rain mn
in
humidity
%
barometer
mb
20260507063500 51 36 1.0 3.0 0.00 0.20 0.00 81 1014.0
20260507063001 51 16 2.0 3.0 0.00 0.20 0.00 82 1013.9
20260507062501 51 1 2.0 3.0 0.00 0.20 0.00 82 1013.8
20260507062001 51 19 1.0 4.0 0.00 0.20 0.00 83 1013.9
20260507061502 51 15 2.0 3.0 0.00 0.20 0.00 83 1013.8
20260507061001 51 6 1.0 4.0 0.00 0.20 0.00 83 1013.8
20260507060501 50 16 1.0 5.0 0.00 0.20 0.00 83 1013.5
20260507060001 50 17 1.0 3.0 0.00 0.20 0.00 83 1013.8
20260507055500 50 22 1.0 3.0 0.00 0.20 0.00 84 1013.3
20260507055000 50 14 0.0 3.0 0.00 0.20 0.00 84 1013.4
20260507054501 50 13 1.0 1.0 0.00 0.20 0.00 84 1013.4
20260507054000 50 18 1.0 4.0 0.00 0.20 0.00 84 1013.4
20260507053500 50 23 1.0 2.0 0.00 0.20 0.00 84 1013.1
20260507053000 50 12 1.0 4.0 0.00 0.20 0.00 84 1013.2
20260507052500 50 20 1.0 3.0 0.00 0.20 0.00 83 1013.1
20260507052000 50 3 1.0 2.0 0.00 0.20 0.00 84 1013.3
20260507051500 50 11 1.0 2.0 0.00 0.20 0.00 84 1013.0
20260507051000 50 26 2.0 5.0 0.00 0.20 0.00 84 1013.0
20260507050500 50 34 2.0 5.0 0.00 0.20 0.00 85 1013.0
20260507050000 50 7 2.0 3.0 0.00 0.20 0.00 85 1012.7
20260507045500 50 5 2.0 4.0 0.00 0.20 0.00 85 1012.8
20260507045000 50 336 2.0 3.0 0.00 0.20 0.00 85 1012.7
20260507044500 50 17 2.0 5.0 0.00 0.20 0.00 85 1012.6
20260507044000 50 19 3.0 5.0 0.00 0.20 0.00 85 1012.6
20260507043500 50 359 3.0 8.0 0.00 0.20 0.00 85 1012.3
20260507043000 50 17 3.0 6.0 0.00 0.20 0.00 85 1012.5
20260507042500 50 0 2.0 6.0 0.00 0.20 0.00 86 1012.2
20260507042001 50 10 2.0 3.0 0.00 0.20 0.00 86 1012.4
20260507041501 50 14 1.0 2.0 0.00 0.20 0.00 86 1012.1
20260507041001 50 21 0.0 3.0 0.00 0.20 0.00 86 1012.0
20260507040501 51 59 0.0 0.0 0.00 0.20 0.00 86 1012.0
20260507040001 51 61 1.0 3.0 0.00 0.20 0.00 86 1011.9
20260507035500 51 23 1.0 4.0 0.00 0.20 0.00 86 1012.2
20260507035000 51 32 1.0 3.0 0.00 0.20 0.00 86 1011.7
20260507034500 51 21 0.0 3.0 0.00 0.20 0.00 86 1012.0
20260507034000 51 6 0.0 5.0 0.00 0.20 0.00 87 1012.0
20260507033501 51 55 1.0 2.0 0.00 0.20 0.00 87 1012.0
20260507033000 51 14 0.0 3.0 0.00 0.20 0.00 88 1012.1
20260507032500 51 21 1.0 3.0 0.00 0.20 0.00 88 1012.0
20260507032000 51 32 0.0 3.0 0.00 0.20 0.00 88 1011.9
20260507031500 51 26 0.0 2.0 0.00 0.20 0.00 88 1012.0
20260507031000 51 57 0.0 2.0 0.00 0.20 0.00 89 1011.9
20260507030500 51 10 0.0 2.0 0.00 0.20 0.00 89 1011.8
20260507030000 51 48 0.0 1.0 0.00 0.20 0.00 90 1011.7
20260507025500 51 57 0.0 1.0 0.00 0.20 0.00 90 1011.6
20260507025000 51 58 0.0 1.0 0.00 0.20 0.00 90 1011.9
20260507024500 51 57 1.0 3.0 0.00 0.20 0.00 90 1011.6
20260507024000 51 27 1.0 3.0 0.00 0.20 0.00 89 1011.7
20260507023500 51 18 1.0 3.0 0.00 0.20 0.00 89 1011.6
20260507023000 51 55 1.0 4.0 0.00 0.20 0.00 89 1011.8
20260507022500 51 33 1.0 3.0 0.00 0.20 0.00 88 1011.7
20260507022001 51 25 1.0 3.0 0.00 0.20 0.00 87 1011.6
20260507021501 51 55 1.0 5.0 0.00 0.20 0.00 87 1011.6
20260507021001 51 12 1.0 2.0 0.00 0.20 0.00 87 1011.7
20260507020501 51 34 1.0 3.0 0.00 0.20 0.00 87 1011.4
20260507020001 51 30 1.0 3.0 0.00 0.20 0.00 87 1011.3
20260507015501 51 14 2.0 3.0 0.00 0.20 0.00 87 1011.3
20260507015001 51 33 3.0 4.0 0.00 0.20 0.00 87 1011.2
20260507014501 51 3 3.0 5.0 0.00 0.20 0.00 87 1011.2
20260507014001 51 27 2.0 3.0 0.00 0.20 0.00 87 1011.3
20260507013500 51 9 2.0 5.0 0.00 0.20 0.00 87 1011.2
20260507013001 51 9 2.0 2.0 0.00 0.20 0.00 87 1011.4
20260507012500 51 10 2.0 4.0 0.00 0.20 0.00 88 1011.0
20260507012000 51 12 2.0 6.0 0.00 0.20 0.00 88 1011.1
20260507011500 51 6 1.0 3.0 0.00 0.20 0.00 88 1011.1
20260507011000 51 352 1.0 2.0 0.00 0.20 0.00 88 1011.2
20260507010500 51 354 1.0 2.0 0.00 0.20 0.00 88 1011.0
20260507010000 51 47 1.0 2.0 0.00 0.20 0.00 88 1010.9
20260507005500 51 33 1.0 4.0 0.00 0.20 0.00 88 1011.1
20260507005000 51 17 1.0 2.0 0.00 0.20 0.00 88 1010.9
20260507004501 51 14 1.0 3.0 0.00 0.20 0.00 88 1010.9
20260507004000 51 30 1.0 4.0 0.00 0.20 0.00 88 1011.0
20260507003500 51 23 1.0 3.0 0.00 0.20 0.00 88 1011.0
20260507003000 51 27 1.0 4.0 0.00 0.20 0.00 88 1010.7
20260507002500 51 14 1.0 3.0 0.00 0.20 0.00 88 1010.9
20260507002000 51 353 2.0 4.0 0.00 0.20 0.00 88 1010.9
20260507001500 51 2 1.0 3.0 0.00 0.20 0.00 88 1011.0
20260507001001 51 9 1.0 4.0 0.00 0.20 0.00 88 1010.8
20260507000501 51 5 2.0 2.0 0.00 0.20 0.00 88 1010.8
20260507000002 51 14 2.0 8.0 0.00 0.20 0.00 88 1011.0
20260506235501 51 10 2.0 2.0 0.00 0.20 0.00 88 1011.0
20260506235001 52 3 2.0 5.0 0.00 0.20 0.00 88 1010.7
20260506234501 52 8 2.0 2.0 0.00 0.20 0.00 88 1010.9
20260506234001 52 357 2.0 4.0 0.00 0.20 0.00 88 1010.6
20260506233501 52 17 2.0 4.0 0.00 0.20 0.00 88 1010.8
20260506233000 52 33 2.0 3.0 0.00 0.20 0.00 88 1010.8
20260506232500 52 2 2.0 4.0 0.00 0.20 0.00 88 1010.7
20260506232000 52 9 2.0 3.0 0.00 0.20 0.00 89 1010.7
20260506231500 52 6 2.0 3.0 0.00 0.20 0.00 89 1010.7
20260506231000 52 23 2.0 5.0 0.00 0.20 0.00 89 1010.6
20260506230500 52 10 1.0 5.0 0.00 0.20 0.00 89 1010.5
20260506230000 52 30 1.0 3.0 0.00 0.20 0.00 88 1010.6
20260506225500 52 5 2.0 6.0 0.00 0.20 0.00 89 1010.6
20260506225000 52 15 2.0 4.0 0.00 0.20 0.00 88 1010.5
20260506224500 52 23 2.0 5.0 0.00 0.20 0.00 88 1010.2
20260506224000 52 0 2.0 5.0 0.00 0.20 0.00 88 1010.2
20260506223500 52 10 2.0 3.0 0.00 0.20 0.00 88 1010.6
20260506223000 52 22 2.0 5.0 0.00 0.20 0.00 88 1010.6
20260506222500 52 359 2.0 4.0 0.00 0.20 0.00 88 1010.2
20260506222000 52 26 2.0 4.0 0.00 0.20 0.00 88 1010.4
20260506221500 52 17 1.0 3.0 0.00 0.20 0.00 88 1010.2
20260506221000 52 13 1.0 2.0 0.00 0.20 0.00 88 1010.2
20260506220500 52 11 1.0 4.0 0.00 0.20 0.00 87 1010.2
20260506220000 53 21 1.0 4.0 0.00 0.20 0.14 88 1010.5
20260506215501 53 7 1.0 2.0 0.00 0.20 0.14 88 1010.1
20260506215001 53 14 2.0 5.0 0.00 0.20 0.14 87 1010.2
20260506214501 53 349 2.0 3.0 0.00 0.20 0.14 87 1010.2
20260506214001 53 16 2.0 4.0 0.00 0.20 0.14 87 1010.1
20260506213501 53 5 2.0 4.0 0.00 0.20 0.14 87 1010.0
20260506213001 53 8 1.0 6.0 0.00 0.20 0.14 87 1010.1
20260506212501 53 96 1.0 8.0 0.00 0.20 0.14 87 1010.0
20260506212001 53 3 1.0 5.0 0.00 0.20 0.14 87 1010.0
20260506211501 53 30 1.0 8.0 0.00 0.20 0.14 88 1010.0
20260506211000 53 356 2.0 3.0 0.00 0.20 0.14 88 1010.0
20260506210500 53 358 2.0 4.0 0.00 0.20 0.14 88 1009.9
20260506210000 53 37 2.0 9.0 0.00 0.20 0.14 88 1010.0
20260506205500 53 34 2.0 4.0 0.00 0.20 0.14 88 1009.7
20260506205000 53 13 2.0 4.0 0.00 0.20 0.14 88 1009.7
20260506204500 53 58 2.0 5.0 0.00 0.20 0.14 88 1009.7
20260506204000 54 17 1.0 3.0 0.00 0.20 0.14 88 1009.9
20260506203500 54 10 1.0 5.0 0.00 0.20 0.14 88 1009.9
20260506203001 54 14 1.0 4.0 0.00 0.20 0.14 88 1009.6
20260506202500 54 57 2.0 5.0 0.00 0.20 0.14 88 1009.7
20260506202000 54 358 2.0 4.0 0.00 0.20 0.14 88 1009.5
20260506201500 54 13 1.0 4.0 0.00 0.20 0.14 88 1009.4
20260506201000 54 358 1.0 3.0 0.00 0.20 0.14 87 1009.7
20260506200500 54 14 1.0 3.0 0.00 0.20 0.14 87 1009.5
20260506200001 55 16 1.0 2.0 0.00 0.20 0.14 87 1009.3
20260506195500 55 6 1.0 3.0 0.00 0.20 0.14 87 1009.3
20260506195000 55 54 1.0 2.0 0.00 0.20 0.14 86 1009.4
20260506194500 55 53 2.0 4.0 0.00 0.20 0.14 86 1009.1
20260506194000 55 40 1.0 2.0 0.00 0.20 0.14 87 1009.1
20260506193501 55 24 2.0 4.0 0.00 0.20 0.14 88 1009.1
20260506193001 55 359 1.0 3.0 0.00 0.20 0.14 87 1009.2
20260506192501 55 22 1.0 3.0 0.00 0.20 0.14 87 1008.9
20260506192001 55 20 1.0 3.0 0.00 0.20 0.14 87 1009.1
20260506191501 55 20 1.0 4.0 0.00 0.20 0.14 87 1008.9
20260506191001 56 14 1.0 3.0 0.00 0.20 0.14 87 1008.8
20260506190501 56 21 2.0 4.0 0.00 0.20 0.14 87 1008.8
20260506190001 56 10 2.0 5.0 0.00 0.20 0.14 87 1008.6
20260506185501 56 107 2.0 4.0 0.00 0.20 0.14 87 1008.6
20260506185000 56 10 2.0 2.0 0.00 0.20 0.14 88 1008.4
20260506184500 56 1 0.0 4.0 0.00 0.20 0.14 89 1008.4
20260506184001 56 0 0.0 2.0 0.00 0.20 0.14 89 1008.2
20260506183500 56 359 1.0 2.0 0.00 0.20 0.14 89 1008.2
20260506183000 56 2 2.0 3.0 0.00 0.20 0.14 88 1008.3
20260506182500 57 56 2.0 3.0 0.00 0.20 0.14 88 1008.0
20260506182000 57 8 2.0 6.0 0.00 0.20 0.14 88 1008.1
20260506181500 57 4 2.0 5.0 0.00 0.20 0.14 88 1008.2
20260506181000 57 46 1.0 5.0 0.00 0.20 0.14 88 1007.9
20260506180500 57 2 1.0 3.0 0.00 0.20 0.14 89 1007.6
20260506180000 57 50 1.0 1.0 0.00 0.20 0.14 89 1007.9
20260506175500 58 31 1.0 3.0 0.00 0.20 0.14 89 1007.8
20260506175001 58 31 1.0 2.0 0.00 0.20 0.14 89 1007.5
20260506174500 58 344 2.0 2.0 0.00 0.20 0.14 89 1007.8
20260506174000 58 14 1.0 6.0 0.02 0.20 0.14 88 1007.5
20260506173501 58 139 2.0 5.0 0.05 0.20 0.14 90 1007.3
20260506173001 58 35 2.0 5.0 0.05 0.20 0.14 89 1007.4
20260506172501 58 1 2.0 4.0 0.05 0.20 0.14 89 1007.6
20260506172001 58 5 2.0 3.0 0.05 0.20 0.14 89 1007.4
20260506171501 58 359 3.0 3.0 0.05 0.20 0.14 89 1007.5
20260506171001 58 9 3.0 9.0 0.05 0.20 0.14 89 1007.4
20260506170501 59 7 2.0 4.0 0.05 0.19 0.14 89 1007.2
20260506170000 59 359 2.0 3.0 0.05 0.19 0.14 88 1007.4
20260506165501 59 340 2.0 5.0 0.05 0.19 0.14 88 1007.5
20260506165000 59 25 2.0 3.0 0.04 0.19 0.13 88 1007.4
20260506164500 60 52 1.0 4.0 0.03 0.18 0.12 88 1007.4
20260506163500 60 8 1.0 3.0 0.00 0.14 0.09 87 1007.4
20260506163000 60 42 1.0 5.0 0.00 0.14 0.09 87 1007.1
20260506162500 60 35 1.0 3.0 0.00 0.14 0.09 85 1006.8
20260506162000 60 76 1.0 2.0 0.00 0.14 0.09 85 1007.0
20260506161500 60 72 1.0 5.0 0.00 0.14 0.09 83 1007.1
20260506161000 60 31 1.0 6.0 0.00 0.14 0.09 82 1006.9
20260506160500 61 79 1.0 3.0 0.02 0.14 0.09 82 1007.0
20260506160000 61 29 1.0 4.0 0.03 0.14 0.09 81 1007.0
20260506155500 61 46 1.0 2.0 0.03 0.14 0.09 81 1007.0
20260506155000 61 16 3.0 5.0 0.03 0.14 0.09 81 1007.0
20260506154500 61 28 2.0 5.0 0.03 0.14 0.09 81 1007.0
20260506154000 62 358 2.0 4.0 0.03 0.14 0.09 81 1007.1
20260506153500 62 354 3.0 5.0 0.03 0.14 0.09 81 1006.9
20260506153000 62 7 3.0 6.0 0.03 0.14 0.09 81 1006.9
20260506152501 62 24 2.0 9.0 0.03 0.14 0.09 80 1007.0
20260506152001 62 66 2.0 3.0 0.03 0.14 0.09 80 1007.0
20260506151501 63 3 3.0 6.0 0.03 0.14 0.09 78 1006.9
20260506151001 63 36 4.0 4.0 0.03 0.14 0.09 76 1006.8
20260506150501 64 338 4.0 6.0 0.00 0.11 0.05 70 1006.9
20260506150001 64 30 4.0 8.0 0.00 0.11 0.05 68 1006.8
20260506145501 64 14 4.0 8.0 0.00 0.11 0.05 66 1006.6
20260506145001 64 48 3.0 6.0 0.00 0.11 0.05 64 1006.5
20260506144500 65 36 2.0 6.0 0.00 0.11 0.05 63 1006.6
20260506144000 65 7 2.0 4.0 0.00 0.11 0.05 61 1006.5
20260506143500 65 347 2.0 5.0 0.00 0.11 0.05 60 1006.5
20260506143000 65 28 2.0 4.0 0.00 0.11 0.05 60 1006.5
20260506142500 65 334 3.0 5.0 0.00 0.11 0.05 60 1006.4
20260506142000 66 1 3.0 8.0 0.00 0.11 0.05 59 1006.4
20260506141500 66 342 3.0 6.0 0.00 0.11 0.05 58 1006.5
20260506141000 66 333 3.0 8.0 0.00 0.11 0.05 57 1006.3
20260506140500 66 45 3.0 6.0 0.00 0.11 0.05 57 1006.4
20260506140000 66 10 3.0 6.0 0.00 0.11 0.05 57 1006.2
20260506135500 65 3 4.0 6.0 0.00 0.11 0.05 57 1006.3
20260506135000 65 351 4.0 8.0 0.00 0.11 0.05 58 1006.2
20260506134500 65 15 3.0 10.0 0.00 0.11 0.05 59 1006.3
20260506134000 65 3 2.0 6.0 0.00 0.11 0.05 59 1006.4
20260506133500 65 6 3.0 6.0 0.00 0.11 0.05 59 1006.2
20260506133000 65 9 4.0 8.0 0.00 0.11 0.05 59 1006.3
20260506132500 65 6 3.0 9.0 0.00 0.11 0.05 60 1006.1
20260506132000 65 11 3.0 6.0 0.00 0.11 0.05 59 1006.3
20260506131500 65 357 4.0 3.0 0.00 0.11 0.05 59 1006.5
20260506131001 65 351 4.0 8.0 0.00 0.11 0.05 59 1006.4
20260506130501 65 20 4.0 11.0 0.00 0.11 0.05 59 1006.2
20260506130001 64 0 3.0 6.0 0.00 0.11 0.05 59 1006.7
20260506125501 64 334 2.0 4.0 0.00 0.11 0.05 60 1006.5
20260506125001 64 335 2.0 9.0 0.00 0.11 0.05 59 1006.2
20260506124501 64 273 2.0 5.0 0.00 0.11 0.05 61 1006.5
20260506124001 64 1 2.0 6.0 0.00 0.11 0.05 61 1006.4
20260506123500 64 338 1.0 8.0 0.00 0.11 0.05 62 1006.6
20260506123001 64 338 1.0 2.0 0.00 0.11 0.05 62 1006.4
20260506122500 64 12 1.0 2.0 0.00 0.11 0.05 62 1006.3
20260506122000 64 347 2.0 4.0 0.00 0.11 0.05 62 1006.5
20260506121500 64 350 2.0 4.0 0.00 0.11 0.05 62 1006.4
20260506121000 65 344 2.0 5.0 0.00 0.11 0.05 61 1006.5
20260506120500 65 335 2.0 8.0 0.00 0.11 0.05 60 1006.5
20260506120000 65 332 2.0 6.0 0.00 0.11 0.05 58 1006.6
20260506115500 65 337 2.0 6.0 0.00 0.11 0.05 57 1006.5
20260506115000 65 326 3.0 8.0 0.00 0.11 0.05 57 1006.5
20260506114500 65 346 3.0 6.0 0.00 0.11 0.05 57 1006.5
20260506114000 65 335 3.0 5.0 0.00 0.11 0.05 57 1006.6
20260506113500 65 278 4.0 9.0 0.00 0.11 0.05 56 1006.4
20260506113000 65 332 3.0 6.0 0.00 0.11 0.05 55 1006.6
20260506112500 64 357 4.0 6.0 0.00 0.11 0.05 58 1006.4
20260506112000 63 300 4.0 9.0 0.00 0.11 0.05 61 1006.7
20260506111500 63 343 3.0 5.0 0.00 0.11 0.05 61 1006.5
20260506111000 63 32 3.0 6.0 0.00 0.11 0.05 62 1006.7
20260506110501 63 275 4.0 8.0 0.00 0.11 0.05 65 1006.7
20260506110001 63 337 3.0 9.0 0.00 0.11 0.05 65 1006.9
20260506105501 63 339 3.0 6.0 0.00 0.11 0.05 66 1006.8
20260506105001 63 321 3.0 6.0 0.00 0.11 0.05 64 1006.6
20260506104501 63 358 4.0 8.0 0.00 0.11 0.05 62 1006.5
20260506104000 63 341 3.0 11.0 0.00 0.11 0.05 62 1006.8
20260506103500 63 303 2.0 9.0 0.00 0.11 0.05 64 1006.7
20260506103000 64 3 3.0 9.0 0.00 0.11 0.05 62 1007.0
20260506102500 64 357 3.0 11.0 0.00 0.11 0.05 63 1006.6
20260506102000 64 349 4.0 8.0 0.00 0.11 0.05 61 1006.6
20260506101500 64 293 4.0 9.0 0.00 0.11 0.05 62 1006.7
20260506101000 64 347 4.0 8.0 0.00 0.11 0.05 61 1006.9
20260506100500 64 7 3.0 6.0 0.00 0.11 0.05 61 1006.9
20260506100000 64 15 4.0 6.0 0.00 0.11 0.05 60 1006.6
20260506095500 64 321 3.0 3.0 0.00 0.11 0.05 60 1006.7
20260506095000 63 5 2.0 5.0 0.00 0.11 0.05 61 1006.7
20260506094500 62 353 3.0 8.0 0.00 0.11 0.05 62 1006.8
20260506094000 62 19 3.0 9.0 0.00 0.11 0.05 63 1006.3
20260506093500 61 357 4.0 3.0 0.00 0.11 0.05 65 1006.7
20260506093000 61 346 4.0 12.0 0.00 0.11 0.05 65 1006.5
20260506092500 61 10 4.0 8.0 0.00 0.11 0.05 65 1006.6
20260506092000 60 7 4.0 8.0 0.00 0.11 0.05 67 1006.8
20260506091501 60 280 3.0 8.0 0.00 0.11 0.05 71 1006.7
20260506091001 59 308 4.0 8.0 0.00 0.11 0.05 72 1007.0
20260506090501 60 341 3.0 9.0 0.00 0.11 0.05 73 1006.7
20260506090001 60 290 2.0 5.0 0.00 0.11 0.05 72 1007.0
20260506085501 60 12 1.0 5.0 0.00 0.11 0.05 72 1006.9
20260506085001 59 343 1.0 5.0 0.00 0.11 0.05 73 1006.8
20260506084501 59 26 2.0 4.0 0.00 0.11 0.05 75 1006.8
20260506084001 59 352 2.0 5.0 0.00 0.11 0.05 76 1006.9
20260506083501 59 337 2.0 9.0 0.00 0.11 0.05 77 1006.6
20260506083001 59 274 1.0 6.0 0.00 0.11 0.05 78 1006.9
20260506082501 59 7 1.0 2.0 0.00 0.11 0.05 78 1006.6
20260506082000 59 358 1.0 4.0 0.00 0.11 0.05 78 1006.5
20260506081500 59 345 2.0 4.0 0.00 0.11 0.05 77 1006.6
20260506081000 60 334 3.0 6.0 0.00 0.11 0.05 78 1006.6
20260506080500 60 284 2.0 6.0 0.00 0.11 0.05 78 1006.6
20260506073500 60 271 2.0 4.0 0.00 0.11 0.05 77 1006.5
20260506073000 60 301 2.0 5.0 0.00 0.11 0.05 74 1006.6
20260506072500 60 352 2.0 5.0 0.00 0.11 0.05 77 1006.5
20260506072000 60 357 2.0 6.0 0.00 0.11 0.05 79 1006.7
20260506071000 59 317 2.0 6.0 0.00 0.11 0.05 80 1006.5
20260506070500 59 324 2.0 4.0 0.00 0.11 0.05 82 1006.5